Time,TemperatureF,DewpointF,PressureIn,WindDirection,WindDirectionDegrees,WindSpeedMPH,WindSpeedGustMPH,Humidity,HourlyPrecipIn,Conditions,Clouds,dailyrainin,SoftwareType,DateUTC
2013-02-14 00:02:00,26.4,10.7,30.28,West,270,0.0,0.0,51,0.00,,,0.00,WUHU21623XXSP,2013-02-14 08:02:00,
2013-02-14 00:07:00,26.4,10.7,30.29,West,270,0.0,0.0,51,0.00,,,0.00,WUHU21623XXSP,2013-02-14 08:07:00,
2013-02-14 00:13:00,26.2,10.9,30.28,SSE,157,0.0,0.0,52,0.00,,,0.00,WUHU21623XXSP,2013-02-14 08:13:00,
2013-02-14 00:18:00,26.2,10.9,30.28,SSE,157,0.0,0.0,52,0.00,,,0.00,WUHU21623XXSP,2013-02-14 08:18:00,
2013-02-14 00:23:00,26.1,10.7,30.29,SSE,157,0.0,0.0,52,0.00,,,0.00,WUHU21623XXSP,2013-02-14 08:23:00,
2013-02-14 00:28:00,25.7,10.6,30.29,SSE,157,0.0,0.0,52,0.00,,,0.00,WUHU21623XXSP,2013-02-14 08:28:00,
2013-02-14 00:33:00,25.7,10.4,30.29,NE,45,0.0,0.0,52,0.00,,,0.00,WUHU21623XXSP,2013-02-14 08:33:00,
2013-02-14 00:39:00,25.5,10.3,30.29,NE,45,0.0,0.0,52,0.00,,,0.00,WUHU21623XXSP,2013-02-14 08:39:00,
2013-02-14 00:45:00,25.5,10.3,30.29,NNE,22,0.0,0.0,52,0.00,,,0.00,WUHU21623XXSP,2013-02-14 08:45:00,
2013-02-14 00:50:00,25.3,10.1,30.29,WSW,247,0.0,0.0,52,0.00,,,0.00,WUHU21623XXSP,2013-02-14 08:50:00,
2013-02-14 00:55:00,25.2,10.3,30.29,SW,225,0.0,0.0,53,0.00,,,0.00,WUHU21623XXSP,2013-02-14 08:55:00,
2013-02-14 01:00:00,25.2,10.3,30.29,SW,225,0.0,0.0,53,0.00,,,0.00,WUHU21623XXSP,2013-02-14 09:00:00,
2013-02-14 01:05:00,25.0,10.2,30.29,NNE,22,0.0,0.0,53,0.00,,,0.00,WUHU21623XXSP,2013-02-14 09:05:00,
2013-02-14 01:10:00,25.0,10.2,30.29,NNE,22,0.0,0.0,53,0.00,,,0.00,WUHU21623XXSP,2013-02-14 09:10:00,
2013-02-14 01:15:00,24.6,9.8,30.29,NNE,22,0.0,0.0,53,0.00,,,0.00,WUHU21623XXSP,2013-02-14 09:15:00,
2013-02-14 01:22:00,24.6,9.8,30.29,WNW,292,0.0,0.0,53,0.00,,,0.00,WUHU21623XXSP,2013-02-14 09:22:00,
2013-02-14 01:27:00,24.4,9.7,30.29,WNW,292,0.0,0.0,53,0.00,,,0.00,WUHU21623XXSP,2013-02-14 09:27:00,
2013-02-14 01:32:00,24.4,9.7,30.29,NW,315,0.0,0.0,53,0.00,,,0.00,WUHU21623XXSP,2013-02-14 09:32:00,
2013-02-14 01:37:00,24.3,9.9,30.30,NW,315,0.0,0.0,54,0.00,,,0.00,WUHU21623XXSP,2013-02-14 09:37:00,
2013-02-14 01:42:00,24.1,9.8,30.30,NW,315,0.0,0.0,54,0.00,,,0.00,WUHU21623XXSP,2013-02-14 09:42:00,
2013-02-14 01:49:00,23.9,9.6,30.30,SE,135,0.0,0.0,54,0.00,,,0.00,WUHU21623XXSP,2013-02-14 09:49:00,
2013-02-14 01:54:00,23.7,9.4,30.29,SE,135,0.0,0.0,54,0.00,,,0.00,WUHU21623XXSP,2013-02-14 09:54:00,
2013-02-14 01:59:00,23.5,9.4,30.30,SE,135,0.0,0.0,54,0.00,,,0.00,WUHU21623XXSP,2013-02-14 09:59:00,
2013-02-14 02:05:00,23.4,9.2,30.30,West,270,0.0,0.0,54,0.00,,,0.00,WUHU21623XXSP,2013-02-14 10:05:00,
2013-02-14 02:10:00,23.4,9.5,30.30,West,270,0.0,0.0,55,0.00,,,0.00,WUHU21623XXSP,2013-02-14 10:10:00,
2013-02-14 02:15:00,23.4,9.5,30.30,West,270,0.0,0.0,55,0.00,,,0.00,WUHU21623XXSP,2013-02-14 10:15:00,
2013-02-14 02:22:00,23.0,8.7,30.30,West,270,0.0,0.0,54,0.00,,,0.00,WUHU21623XXSP,2013-02-14 10:22:00,
2013-02-14 02:27:00,23.0,8.7,30.29,West,270,0.0,0.0,54,0.00,,,0.00,WUHU21623XXSP,2013-02-14 10:27:00,
2013-02-14 02:34:00,22.8,9.0,30.30,West,270,0.0,0.0,55,0.00,,,0.00,WUHU21623XXSP,2013-02-14 10:34:00,
2013-02-14 02:39:00,22.6,8.8,30.30,NNE,22,0.0,0.0,55,0.00,,,0.00,WUHU21623XXSP,2013-02-14 10:39:00,
2013-02-14 02:44:00,22.5,8.6,30.30,NNE,22,0.0,0.0,55,0.00,,,0.00,WUHU21623XXSP,2013-02-14 10:44:00,
2013-02-14 02:49:00,22.3,8.5,30.30,NNE,22,0.0,0.0,55,0.00,,,0.00,WUHU21623XXSP,2013-02-14 10:49:00,
2013-02-14 02:54:00,22.3,8.5,30.30,NNE,22,0.0,0.0,55,0.00,,,0.00,WUHU21623XXSP,2013-02-14 10:54:00,
2013-02-14 03:00:00,22.1,8.3,30.30,NE,45,0.0,0.0,55,0.00,,,0.00,WUHU21623XXSP,2013-02-14 11:00:00,
2013-02-14 03:05:00,21.9,8.5,30.30,NE,45,0.0,0.0,56,0.00,,,0.00,WUHU21623XXSP,2013-02-14 11:05:00,
2013-02-14 03:11:00,21.9,8.5,30.30,NE,45,0.0,0.0,56,0.00,,,0.00,WUHU21623XXSP,2013-02-14 11:11:00,
2013-02-14 03:16:00,21.7,8.3,30.30,NE,45,0.0,0.0,56,0.00,,,0.00,WUHU21623XXSP,2013-02-14 11:16:00,
2013-02-14 03:21:00,21.6,8.2,30.30,NE,45,0.0,0.0,56,0.00,,,0.00,WUHU21623XXSP,2013-02-14 11:21:00,
2013-02-14 03:26:00,21.4,8.0,30.30,NE,45,0.0,0.0,56,0.00,,,0.00,WUHU21623XXSP,2013-02-14 11:26:00,
2013-02-14 03:31:00,21.4,8.0,30.30,NNE,22,0.0,0.0,56,0.00,,,0.00,WUHU21623XXSP,2013-02-14 11:31:00,
2013-02-14 03:36:00,21.4,8.0,30.30,NNE,22,0.0,0.0,56,0.00,,,0.00,WUHU21623XXSP,2013-02-14 11:36:00,
2013-02-14 03:41:00,21.2,7.8,30.30,NNE,22,0.0,0.0,56,0.00,,,0.00,WUHU21623XXSP,2013-02-14 11:41:00,
2013-02-14 03:46:00,21.0,8.1,30.30,ENE,67,0.0,0.0,57,0.00,,,0.00,WUHU21623XXSP,2013-02-14 11:46:00,
2013-02-14 03:51:00,21.0,8.1,30.31,ENE,67,0.0,0.0,57,0.00,,,0.00,WUHU21623XXSP,2013-02-14 11:51:00,
2013-02-14 03:56:00,20.8,7.9,30.30,ENE,67,0.0,0.0,57,0.00,,,0.00,WUHU21623XXSP,2013-02-14 11:56:00,
2013-02-14 04:01:00,20.8,7.9,30.30,NE,45,0.0,0.0,57,0.00,,,0.00,WUHU21623XXSP,2013-02-14 12:01:00,
2013-02-14 04:07:00,20.8,7.9,30.30,SE,135,0.0,0.0,57,0.00,,,0.00,WUHU21623XXSP,2013-02-14 12:07:00,
2013-02-14 04:11:00,20.8,7.9,30.30,SSE,157,0.0,0.0,57,0.00,,,0.00,WUHU21623XXSP,2013-02-14 12:11:00,
2013-02-14 04:16:00,20.5,7.6,30.30,SSE,157,0.0,0.0,57,0.00,,,0.00,WUHU21623XXSP,2013-02-14 12:16:00,
2013-02-14 04:22:00,20.5,7.6,30.30,West,270,0.0,0.0,57,0.00,,,0.00,WUHU21623XXSP,2013-02-14 12:22:00,
2013-02-14 04:27:00,20.3,7.6,30.31,North,0,0.0,0.0,57,0.00,,,0.00,WUHU21623XXSP,2013-02-14 12:27:00,
2013-02-14 04:32:00,20.3,7.8,30.31,North,0,0.0,0.0,58,0.00,,,0.00,WUHU21623XXSP,2013-02-14 12:32:00,
2013-02-14 04:37:00,20.3,7.8,30.31,North,0,0.0,0.0,58,0.00,,,0.00,WUHU21623XXSP,2013-02-14 12:37:00,
2013-02-14 04:42:00,20.3,7.8,30.31,North,0,0.0,0.0,58,0.00,,,0.00,WUHU21623XXSP,2013-02-14 12:42:00,
2013-02-14 04:47:00,20.1,7.6,30.31,North,0,0.0,0.0,58,0.00,,,0.00,WUHU21623XXSP,2013-02-14 12:47:00,
2013-02-14 04:56:00,19.9,7.4,30.31,NE,45,0.0,0.0,58,0.00,,,0.00,WUHU21623XXSP,2013-02-14 12:56:00,
2013-02-14 05:01:00,19.9,7.4,30.31,NE,45,0.0,0.0,58,0.00,,,0.00,WUHU21623XXSP,2013-02-14 13:01:00,
2013-02-14 05:06:00,19.9,7.8,30.32,NNE,22,0.0,0.0,59,0.00,,,0.00,WUHU21623XXSP,2013-02-14 13:06:00,
2013-02-14 05:11:00,19.9,7.8,30.32,East,90,0.0,0.0,59,0.00,,,0.00,WUHU21623XXSP,2013-02-14 13:11:00,
2013-02-14 05:16:00,19.9,7.8,30.32,NE,45,0.0,0.0,59,0.00,,,0.00,WUHU21623XXSP,2013-02-14 13:16:00,
2013-02-14 05:21:00,19.8,7.6,30.32,NE,45,0.0,0.0,59,0.00,,,0.00,WUHU21623XXSP,2013-02-14 13:21:00,
2013-02-14 05:30:00,19.6,7.5,30.32,East,90,0.0,0.0,59,0.00,,,0.00,WUHU21623XXSP,2013-02-14 13:30:00,
2013-02-14 05:36:00,19.6,7.5,30.32,ENE,67,0.0,0.0,59,0.00,,,0.00,WUHU21623XXSP,2013-02-14 13:36:00,
2013-02-14 05:42:00,19.4,7.3,30.32,ENE,67,0.0,0.0,59,0.00,,,0.00,WUHU21623XXSP,2013-02-14 13:42:00,
2013-02-14 05:47:00,19.2,7.1,30.32,ENE,67,0.0,0.0,59,0.00,,,0.00,WUHU21623XXSP,2013-02-14 13:47:00,
2013-02-14 05:54:00,19.2,7.1,30.32,East,90,0.0,0.0,59,0.00,,,0.00,WUHU21623XXSP,2013-02-14 13:54:00,
2013-02-14 05:59:00,19.2,7.1,30.32,West,270,0.0,0.0,59,0.00,,,0.00,WUHU21623XXSP,2013-02-14 13:59:00,
2013-02-14 06:04:00,19.2,7.1,30.32,West,270,0.0,0.0,59,0.00,,,0.00,WUHU21623XXSP,2013-02-14 14:04:00,
2013-02-14 06:09:00,19.0,7.4,30.32,WNW,292,0.0,0.0,60,0.00,,,0.00,WUHU21623XXSP,2013-02-14 14:09:00,
2013-02-14 06:14:00,18.9,7.2,30.33,WNW,292,0.0,0.0,60,0.00,,,0.00,WUHU21623XXSP,2013-02-14 14:14:00,
2013-02-14 06:19:00,18.9,7.2,30.33,NNE,22,0.0,0.0,60,0.00,,,0.00,WUHU21623XXSP,2013-02-14 14:19:00,
2013-02-14 06:24:00,18.7,7.1,30.33,NE,45,0.0,0.0,60,0.00,,,0.00,WUHU21623XXSP,2013-02-14 14:24:00,
2013-02-14 06:29:00,18.7,7.1,30.33,NNE,22,0.0,0.0,60,0.00,,,0.00,WUHU21623XXSP,2013-02-14 14:29:00,
2013-02-14 06:34:00,18.7,7.1,30.34,NNE,22,0.0,0.0,60,0.00,,,0.00,WUHU21623XXSP,2013-02-14 14:34:00,
2013-02-14 06:39:00,18.5,6.9,30.33,NNE,22,0.0,0.0,60,0.00,,,0.00,WUHU21623XXSP,2013-02-14 14:39:00,
2013-02-14 06:44:00,18.5,6.9,30.33,NNW,337,0.0,0.0,60,0.00,,,0.00,WUHU21623XXSP,2013-02-14 14:44:00,
2013-02-14 06:51:00,18.3,7.1,30.33,NNW,337,0.0,0.0,61,0.00,,,0.00,WUHU21623XXSP,2013-02-14 14:51:00,
2013-02-14 06:56:00,18.3,7.1,30.34,NNW,337,0.0,0.0,61,0.00,,,0.00,WUHU21623XXSP,2013-02-14 14:56:00,
2013-02-14 07:01:00,18.3,7.1,30.34,NNW,337,0.0,0.0,61,0.00,,,0.00,WUHU21623XXSP,2013-02-14 15:01:00,
2013-02-14 07:06:00,18.3,7.1,30.34,North,0,0.0,0.0,61,0.00,,,0.00,WUHU21623XXSP,2013-02-14 15:06:00,
2013-02-14 07:11:00,18.3,7.1,30.34,NE,45,0.0,0.0,61,0.00,,,0.00,WUHU21623XXSP,2013-02-14 15:11:00,
2013-02-14 07:16:00,18.1,6.9,30.35,NE,45,0.0,0.0,61,0.00,,,0.00,WUHU21623XXSP,2013-02-14 15:16:00,
2013-02-14 07:22:00,18.1,6.9,30.35,NE,45,0.0,0.0,61,0.00,,,0.00,WUHU21623XXSP,2013-02-14 15:22:00,
2013-02-14 07:28:00,18.3,7.1,30.35,NE,45,0.0,0.0,61,0.00,,,0.00,WUHU21623XXSP,2013-02-14 15:28:00,
2013-02-14 07:33:00,18.3,7.1,30.35,NE,45,0.0,0.0,61,0.00,,,0.00,WUHU21623XXSP,2013-02-14 15:33:00,
2013-02-14 07:41:00,18.3,7.4,30.35,NE,45,0.0,0.0,62,0.00,,,0.00,WUHU21623XXSP,2013-02-14 15:41:00,
2013-02-14 07:46:00,18.5,7.6,30.36,NE,45,0.0,0.0,62,0.00,,,0.00,WUHU21623XXSP,2013-02-14 15:46:00,
2013-02-14 07:51:00,19.0,8.4,30.36,SW,225,0.0,0.0,63,0.00,,,0.00,WUHU21623XXSP,2013-02-14 15:51:00,
2013-02-14 07:56:00,19.4,9.1,30.37,SW,225,0.0,0.0,64,0.00,,,0.00,WUHU21623XXSP,2013-02-14 15:56:00,
2013-02-14 08:01:00,19.9,9.9,30.37,NNW,337,0.0,0.0,65,0.00,,,0.00,WUHU21623XXSP,2013-02-14 16:01:00,
2013-02-14 08:06:00,20.8,10.8,30.37,NNW,337,0.0,0.0,66,0.00,,,0.00,WUHU21623XXSP,2013-02-14 16:06:00,
2013-02-14 08:11:00,21.6,11.9,30.37,SSE,157,0.0,0.0,66,0.00,,,0.00,WUHU21623XXSP,2013-02-14 16:11:00,
2013-02-14 08:16:00,23.2,14.2,30.37,SW,225,0.0,0.0,68,0.00,,,0.00,WUHU21623XXSP,2013-02-14 16:16:00,
2013-02-14 08:23:00,25.3,16.2,30.37,West,270,0.0,0.0,68,0.00,,,0.00,WUHU21623XXSP,2013-02-14 16:23:00,
2013-02-14 08:28:00,25.7,16.5,30.37,West,270,0.0,0.0,68,0.00,,,0.00,WUHU21623XXSP,2013-02-14 16:28:00,
2013-02-14 08:33:00,27.0,17.8,30.37,WSW,247,0.0,0.0,68,0.00,,,0.00,WUHU21623XXSP,2013-02-14 16:33:00,
2013-02-14 08:38:00,28.2,19.0,30.38,SSE,157,0.0,0.0,68,0.00,,,0.00,WUHU21623XXSP,2013-02-14 16:38:00,
2013-02-14 08:43:00,28.9,19.7,30.38,NNE,22,0.0,0.0,68,0.00,,,0.00,WUHU21623XXSP,2013-02-14 16:43:00,
2013-02-14 08:48:00,29.5,20.2,30.38,NNE,22,0.0,0.0,68,0.00,,,0.00,WUHU21623XXSP,2013-02-14 16:48:00,
2013-02-14 08:53:00,30.6,21.2,30.38,South,180,0.0,0.0,68,0.00,,,0.00,WUHU21623XXSP,2013-02-14 16:53:00,
2013-02-14 08:58:00,31.6,22.3,30.38,SE,135,0.0,0.0,68,0.00,,,0.00,WUHU21623XXSP,2013-02-14 16:58:00,
2013-02-14 09:04:00,33.6,23.7,30.38,SSW,202,0.0,0.0,67,0.00,,,0.00,WUHU21623XXSP,2013-02-14 17:04:00,
2013-02-14 09:11:00,34.9,25.0,30.37,SSE,157,0.0,0.0,67,0.00,,,0.00,WUHU21623XXSP,2013-02-14 17:11:00,
2013-02-14 09:16:00,35.8,25.5,30.37,WNW,292,0.0,0.0,66,0.00,,,0.00,WUHU21623XXSP,2013-02-14 17:16:00,
2013-02-14 09:21:00,36.3,25.7,30.37,WNW,292,0.0,0.0,65,0.00,,,0.00,WUHU21623XXSP,2013-02-14 17:21:00,
2013-02-14 09:26:00,37.4,26.3,30.37,SSW,202,0.0,0.0,63,0.00,,,0.00,WUHU21623XXSP,2013-02-14 17:26:00,
2013-02-14 09:31:00,37.4,25.9,30.37,SSW,202,0.0,0.0,63,0.00,,,0.00,WUHU21623XXSP,2013-02-14 17:31:00,
2013-02-14 09:36:00,38.1,26.2,30.37,WNW,292,0.0,0.0,62,0.00,,,0.00,WUHU21623XXSP,2013-02-14 17:36:00,
2013-02-14 09:41:00,38.5,26.5,30.37,West,270,0.0,0.0,62,0.00,,,0.00,WUHU21623XXSP,2013-02-14 17:41:00,
2013-02-14 09:46:00,39.0,26.5,30.37,WNW,292,0.0,0.0,61,0.00,,,0.00,WUHU21623XXSP,2013-02-14 17:46:00,
2013-02-14 09:51:00,39.4,26.6,30.37,WNW,292,0.0,0.0,60,0.00,,,0.00,WUHU21623XXSP,2013-02-14 17:51:00,
2013-02-14 09:56:00,39.6,26.8,30.36,West,270,0.0,0.0,60,0.00,,,0.00,WUHU21623XXSP,2013-02-14 17:56:00,
2013-02-14 10:11:00,40.6,26.5,30.36,West,270,0.0,0.0,57,0.00,,,0.00,WUHU21623XXSP,2013-02-14 18:11:00,
2013-02-14 10:16:00,40.8,26.7,30.37,SSE,157,0.0,0.0,57,0.00,,,0.00,WUHU21623XXSP,2013-02-14 18:16:00,
2013-02-14 10:21:00,41.2,26.6,30.36,WNW,292,0.0,0.0,56,0.00,,,0.00,WUHU21623XXSP,2013-02-14 18:21:00,
2013-02-14 10:26:00,41.4,27.2,30.36,WSW,247,0.0,0.0,57,0.00,,,0.00,WUHU21623XXSP,2013-02-14 18:26:00,
2013-02-14 10:31:00,41.7,26.9,30.36,WNW,292,1.6,1.6,56,0.00,,,0.00,WUHU21623XXSP,2013-02-14 18:31:00,
2013-02-14 10:36:00,42.1,27.4,30.36,SW,225,0.0,1.6,56,0.00,,,0.00,WUHU21623XXSP,2013-02-14 18:36:00,
2013-02-14 10:41:00,42.4,27.4,30.36,WNW,292,2.2,2.2,56,0.00,,,0.00,WUHU21623XXSP,2013-02-14 18:41:00,
2013-02-14 10:47:00,42.8,27.5,30.36,NW,315,0.0,2.2,55,0.00,,,0.00,WUHU21623XXSP,2013-02-14 18:47:00,
2013-02-14 10:52:00,43.0,27.4,30.36,WNW,292,4.5,4.5,54,0.00,,,0.00,WUHU21623XXSP,2013-02-14 18:52:00,
2013-02-14 10:58:00,43.5,27.9,30.36,WNW,292,0.0,4.5,54,0.00,,,0.00,WUHU21623XXSP,2013-02-14 18:58:00,
2013-02-14 11:03:00,44.1,28.1,30.36,WNW,292,7.4,7.4,53,0.00,,,0.00,WUHU21623XXSP,2013-02-14 19:03:00,
2013-02-14 11:08:00,45.1,28.8,30.35,WNW,292,3.1,7.4,53,0.00,,,0.00,WUHU21623XXSP,2013-02-14 19:08:00,
2013-02-14 11:13:00,45.5,28.9,30.35,WNW,292,2.0,3.1,52,0.00,,,0.00,WUHU21623XXSP,2013-02-14 19:13:00,
2013-02-14 11:21:00,46.9,29.7,30.34,WNW,292,2.9,2.9,51,0.00,,,0.00,WUHU21623XXSP,2013-02-14 19:21:00,
2013-02-14 11:26:00,47.7,29.9,30.34,NNW,337,2.5,2.9,50,0.00,,,0.00,WUHU21623XXSP,2013-02-14 19:26:00,
2013-02-14 11:31:00,48.4,30.0,30.34,NW,315,6.5,6.5,49,0.00,,,0.00,WUHU21623XXSP,2013-02-14 19:31:00,
2013-02-14 11:36:00,49.8,30.9,30.34,NNW,337,0.0,6.5,49,0.00,,,0.00,WUHU21623XXSP,2013-02-14 19:36:00,
2013-02-14 11:41:00,50.0,31.1,30.34,North,0,0.9,0.9,48,0.00,,,0.00,WUHU21623XXSP,2013-02-14 19:41:00,
2013-02-14 11:49:00,51.1,30.9,30.34,NNW,337,1.6,1.6,46,0.00,,,0.00,WUHU21623XXSP,2013-02-14 19:49:00,
2013-02-14 11:54:00,51.6,31.4,30.34,WNW,292,0.0,1.6,46,0.00,,,0.00,WUHU21623XXSP,2013-02-14 19:54:00,
2013-02-14 11:59:00,52.2,31.9,30.33,SW,225,3.1,3.1,46,0.00,,,0.00,WUHU21623XXSP,2013-02-14 19:59:00,
2013-02-14 12:04:00,52.9,32.0,30.33,NW,315,0.0,3.1,45,0.00,,,0.00,WUHU21623XXSP,2013-02-14 20:04:00,
2013-02-14 12:09:00,53.4,32.3,30.33,North,0,2.5,2.5,45,0.00,,,0.00,WUHU21623XXSP,2013-02-14 20:09:00,
2013-02-14 12:15:00,54.3,32.7,30.33,South,180,0.0,2.5,44,0.00,,,0.00,WUHU21623XXSP,2013-02-14 20:15:00,
2013-02-14 12:21:00,54.7,32.5,30.32,South,180,0.0,0.0,43,0.00,,,0.00,WUHU21623XXSP,2013-02-14 20:21:00,
2013-02-14 12:26:00,55.0,32.6,30.32,NW,315,3.6,3.6,43,0.00,,,0.00,WUHU21623XXSP,2013-02-14 20:26:00,
2013-02-14 12:31:00,55.2,32.4,30.32,WNW,292,1.8,3.6,41,0.00,,,0.00,WUHU21623XXSP,2013-02-14 20:31:00,
2013-02-14 12:36:00,55.4,32.0,30.32,WNW,292,0.0,1.8,41,0.00,,,0.00,WUHU21623XXSP,2013-02-14 20:36:00,
2013-02-14 12:41:00,55.8,32.3,30.32,NNE,22,0.0,0.0,41,0.00,,,0.00,WUHU21623XXSP,2013-02-14 20:41:00,
2013-02-14 12:46:00,56.1,32.7,30.32,West,270,0.0,0.0,41,0.00,,,0.00,WUHU21623XXSP,2013-02-14 20:46:00,
2013-02-14 12:51:00,56.3,32.8,30.32,WNW,292,3.8,3.8,41,0.00,,,0.00,WUHU21623XXSP,2013-02-14 20:51:00,
2013-02-14 12:56:00,56.3,32.3,30.32,NW,315,2.9,3.8,40,0.00,,,0.00,WUHU21623XXSP,2013-02-14 20:56:00,
2013-02-14 13:01:00,56.3,32.3,30.32,West,270,7.6,7.6,40,0.00,,,0.00,WUHU21623XXSP,2013-02-14 21:01:00,
2013-02-14 13:06:00,56.3,31.6,30.32,West,270,0.0,7.6,39,0.00,,,0.00,WUHU21623XXSP,2013-02-14 21:06:00,
2013-02-14 13:11:00,56.5,31.7,30.32,North,0,0.0,2.2,39,0.00,,,0.00,WUHU21623XXSP,2013-02-14 21:11:00,
2013-02-14 13:17:00,56.7,31.9,30.31,NE,45,1.1,1.1,39,0.00,,,0.00,WUHU21623XXSP,2013-02-14 21:17:00,
2013-02-14 13:22:00,56.8,32.1,30.31,NW,315,4.0,4.0,39,0.00,,,0.00,WUHU21623XXSP,2013-02-14 21:22:00,
2013-02-14 13:30:00,56.5,30.3,30.30,NNW,337,0.0,4.0,37,0.00,,,0.00,WUHU21623XXSP,2013-02-14 21:30:00,
2013-02-14 13:35:00,56.5,31.0,30.30,West,270,0.0,0.0,38,0.00,,,0.00,WUHU21623XXSP,2013-02-14 21:35:00,
2013-02-14 13:40:00,56.5,31.0,30.30,NNW,337,2.7,2.7,38,0.00,,,0.00,WUHU21623XXSP,2013-02-14 21:40:00,
2013-02-14 13:47:00,56.8,31.4,30.31,SSE,157,0.0,2.7,38,0.00,,,0.00,WUHU21623XXSP,2013-02-14 21:47:00,
2013-02-14 13:53:00,57.0,30.8,30.31,WNW,292,1.6,1.6,37,0.00,,,0.00,WUHU21623XXSP,2013-02-14 21:53:00,
2013-02-14 14:00:00,57.0,30.8,30.31,WNW,292,4.5,4.5,37,0.00,,,0.00,WUHU21623XXSP,2013-02-14 22:00:00,
2013-02-14 14:05:00,57.4,31.1,30.30,NW,315,6.7,6.7,37,0.00,,,0.00,WUHU21623XXSP,2013-02-14 22:05:00,
2013-02-14 14:15:00,57.0,30.8,30.30,NNW,337,5.4,5.8,37,0.00,,,0.00,WUHU21623XXSP,2013-02-14 22:15:00,
2013-02-14 14:20:00,56.8,30.6,30.30,NNW,337,3.4,5.4,37,0.00,,,0.00,WUHU21623XXSP,2013-02-14 22:20:00,
2013-02-14 14:25:00,56.5,30.3,30.30,WNW,292,4.7,4.7,37,0.00,,,0.00,WUHU21623XXSP,2013-02-14 22:25:00,
2013-02-14 14:30:00,55.6,29.7,30.30,North,0,2.5,4.7,37,0.00,,,0.00,WUHU21623XXSP,2013-02-14 22:30:00,
2013-02-14 14:35:00,55.2,29.2,30.31,North,0,2.5,3.6,37,0.00,,,0.00,WUHU21623XXSP,2013-02-14 22:35:00,
2013-02-14 14:42:00,54.3,28.4,30.31,WNW,292,4.5,4.5,37,0.00,,,0.00,WUHU21623XXSP,2013-02-14 22:42:00,
2013-02-14 14:47:00,54.1,28.9,30.31,NNW,337,1.3,4.5,38,0.00,,,0.00,WUHU21623XXSP,2013-02-14 22:47:00,
2013-02-14 14:52:00,53.8,28.6,30.31,NW,315,0.0,1.3,38,0.00,,,0.00,WUHU21623XXSP,2013-02-14 22:52:00,
2013-02-14 14:57:00,53.2,28.1,30.30,NNW,337,8.7,8.7,38,0.00,,,0.00,WUHU21623XXSP,2013-02-14 22:57:00,
2013-02-14 15:02:00,52.9,28.5,30.31,NNW,337,6.9,8.7,39,0.00,,,0.00,WUHU21623XXSP,2013-02-14 23:02:00,
2013-02-14 15:08:00,52.5,28.3,30.31,WNW,292,3.8,6.9,39,0.00,,,0.00,WUHU21623XXSP,2013-02-14 23:08:00,
2013-02-14 15:13:00,52.5,28.2,30.30,North,0,2.2,3.8,39,0.00,,,0.00,WUHU21623XXSP,2013-02-14 23:13:00,
2013-02-14 15:18:00,52.3,28.0,30.30,WSW,247,3.8,3.8,39,0.00,,,0.00,WUHU21623XXSP,2013-02-14 23:18:00,
2013-02-14 15:23:00,52.2,27.9,30.30,NNW,337,3.1,4.7,39,0.00,,,0.00,WUHU21623XXSP,2013-02-14 23:23:00,
2013-02-14 15:28:00,52.0,27.7,30.30,NW,315,5.4,5.4,40,0.00,,,0.00,WUHU21623XXSP,2013-02-14 23:28:00,
2013-02-14 15:34:00,51.6,28.1,30.30,NW,315,9.8,9.8,40,0.00,,,0.00,WUHU21623XXSP,2013-02-14 23:34:00,
2013-02-14 15:39:00,51.6,28.1,30.30,NNW,337,0.0,9.8,40,0.00,,,0.00,WUHU21623XXSP,2013-02-14 23:39:00,
2013-02-14 15:44:00,51.6,28.1,30.30,WNW,292,12.1,12.1,40,0.00,,,0.00,WUHU21623XXSP,2013-02-14 23:44:00,
2013-02-14 15:49:00,51.4,27.9,30.30,NNW,337,6.0,12.1,40,0.00,,,0.00,WUHU21623XXSP,2013-02-14 23:49:00,
2013-02-14 15:54:00,51.1,27.6,30.31,WNW,292,10.3,10.3,40,0.00,,,0.00,WUHU21623XXSP,2013-02-14 23:54:00,
2013-02-14 15:59:00,50.9,27.4,30.31,NNE,22,3.6,10.3,40,0.00,,,0.00,WUHU21623XXSP,2013-02-14 23:59:00,
2013-02-14 16:05:00,50.7,27.2,30.30,North,0,4.9,4.9,40,0.00,,,0.00,WUHU21623XXSP,2013-02-15 00:05:00,
2013-02-14 16:10:00,50.5,27.1,30.30,ENE,67,0.0,4.9,40,0.00,,,0.00,WUHU21623XXSP,2013-02-15 00:10:00,
2013-02-14 16:17:00,50.4,26.9,30.31,NNE,22,6.7,6.7,40,0.00,,,0.00,WUHU21623XXSP,2013-02-15 00:17:00,
2013-02-14 16:25:00,49.8,26.4,30.31,NE,45,3.6,6.7,40,0.00,,,0.00,WUHU21623XXSP,2013-02-15 00:25:00,
2013-02-14 16:32:00,49.6,26.3,30.30,North,0,4.5,4.5,40,0.00,,,0.00,WUHU21623XXSP,2013-02-15 00:32:00,
2013-02-14 16:37:00,49.5,26.3,30.30,NNW,337,12.8,12.8,40,0.00,,,0.00,WUHU21623XXSP,2013-02-15 00:37:00,
2013-02-14 16:42:00,49.3,26.0,30.30,NNE,22,1.8,12.8,40,0.00,,,0.00,WUHU21623XXSP,2013-02-15 00:42:00,
2013-02-14 16:47:00,49.1,26.3,30.30,NNE,22,6.5,6.5,41,0.00,,,0.00,WUHU21623XXSP,2013-02-15 00:47:00,
2013-02-14 16:52:00,48.9,26.2,30.30,NNE,22,4.5,6.5,41,0.00,,,0.00,WUHU21623XXSP,2013-02-15 00:52:00,
2013-02-14 17:00:00,48.6,25.8,30.31,North,0,4.3,4.5,41,0.00,,,0.00,WUHU21623XXSP,2013-02-15 01:00:00,
2013-02-14 17:05:00,48.4,25.7,30.31,NE,45,0.0,4.3,41,0.00,,,0.00,WUHU21623XXSP,2013-02-15 01:05:00,
2013-02-14 17:10:00,48.0,25.9,30.31,NE,45,2.2,2.9,42,0.00,,,0.00,WUHU21623XXSP,2013-02-15 01:10:00,
2013-02-14 17:17:00,47.8,25.7,30.31,NNW,337,0.9,2.2,42,0.00,,,0.00,WUHU21623XXSP,2013-02-15 01:17:00,
2013-02-14 17:22:00,47.5,25.4,30.31,NNE,22,0.0,0.9,42,0.00,,,0.00,WUHU21623XXSP,2013-02-15 01:22:00,
2013-02-14 17:27:00,47.3,25.3,30.31,North,0,4.9,4.9,42,0.00,,,0.00,WUHU21623XXSP,2013-02-15 01:27:00,
2013-02-14 17:32:00,46.9,24.9,30.32,NNW,337,0.0,4.9,42,0.00,,,0.00,WUHU21623XXSP,2013-02-15 01:32:00,
2013-02-14 17:37:00,46.6,25.1,30.32,WNW,292,3.1,3.1,43,0.00,,,0.00,WUHU21623XXSP,2013-02-15 01:37:00,
2013-02-14 17:42:00,46.4,25.0,30.32,WNW,292,2.2,3.1,43,0.00,,,0.00,WUHU21623XXSP,2013-02-15 01:42:00,
2013-02-14 17:53:00,45.7,24.3,30.32,West,270,0.0,0.0,43,0.00,,,0.00,WUHU21623XXSP,2013-02-15 01:53:00,
2013-02-14 17:58:00,45.3,24.2,30.32,WNW,292,2.7,2.7,43,0.00,,,0.00,WUHU21623XXSP,2013-02-15 01:58:00,
2013-02-14 18:03:00,45.1,23.8,30.32,WNW,292,0.9,2.7,43,0.00,,,0.00,WUHU21623XXSP,2013-02-15 02:03:00,
2013-02-14 18:08:00,44.4,23.2,30.32,WNW,292,0.0,0.9,43,0.00,,,0.00,WUHU21623XXSP,2013-02-15 02:08:00,
2013-02-14 18:13:00,44.2,23.2,30.33,SW,225,0.0,0.0,44,0.00,,,0.00,WUHU21623XXSP,2013-02-15 02:13:00,
2013-02-14 18:21:00,43.5,22.9,30.33,WNW,292,6.0,6.0,44,0.00,,,0.00,WUHU21623XXSP,2013-02-15 02:21:00,
2013-02-14 18:26:00,43.2,23.1,30.34,NW,315,1.1,6.0,45,0.00,,,0.00,WUHU21623XXSP,2013-02-15 02:26:00,
2013-02-14 18:31:00,42.6,23.2,30.34,NW,315,3.1,3.1,46,0.00,,,0.00,WUHU21623XXSP,2013-02-15 02:31:00,
2013-02-14 18:36:00,42.4,23.0,30.34,NW,315,1.3,3.1,46,0.00,,,0.00,WUHU21623XXSP,2013-02-15 02:36:00,
2013-02-14 18:44:00,42.1,22.7,30.34,NNE,22,0.0,1.3,46,0.00,,,0.00,WUHU21623XXSP,2013-02-15 02:44:00,
2013-02-14 18:51:00,41.7,22.3,30.34,NW,315,0.0,0.0,46,0.00,,,0.00,WUHU21623XXSP,2013-02-15 02:51:00,
2013-02-14 18:56:00,41.5,22.7,30.35,North,0,1.3,1.3,47,0.00,,,0.00,WUHU21623XXSP,2013-02-15 02:56:00,
2013-02-14 19:01:00,41.2,21.8,30.35,North,0,0.0,1.3,46,0.00,,,0.00,WUHU21623XXSP,2013-02-15 03:01:00,
2013-02-14 19:06:00,40.8,21.6,30.35,WNW,292,0.0,0.0,47,0.00,,,0.00,WUHU21623XXSP,2013-02-15 03:06:00,
2013-02-14 19:11:00,40.8,22.0,30.35,WNW,292,0.0,0.0,47,0.00,,,0.00,WUHU21623XXSP,2013-02-15 03:11:00,
2013-02-14 19:16:00,40.6,21.8,30.35,SW,225,0.0,0.0,47,0.00,,,0.00,WUHU21623XXSP,2013-02-15 03:16:00,
2013-02-14 19:21:00,40.3,21.8,30.35,WNW,292,0.0,0.0,47,0.00,,,0.00,WUHU21623XXSP,2013-02-15 03:21:00,
2013-02-14 19:27:00,39.9,21.2,30.36,NNE,22,0.0,0.0,47,0.00,,,0.00,WUHU21623XXSP,2013-02-15 03:27:00,
2013-02-14 19:32:00,39.7,21.0,30.35,NE,45,0.0,0.0,47,0.00,,,0.00,WUHU21623XXSP,2013-02-15 03:32:00,
2013-02-14 19:37:00,39.6,20.9,30.36,North,0,1.8,1.8,47,0.00,,,0.00,WUHU21623XXSP,2013-02-15 03:37:00,
2013-02-14 19:42:00,39.0,20.4,30.36,NNE,22,0.0,1.8,47,0.00,,,0.00,WUHU21623XXSP,2013-02-15 03:42:00,
2013-02-14 19:47:00,38.5,20.4,30.36,ENE,67,0.0,0.7,48,0.00,,,0.00,WUHU21623XXSP,2013-02-15 03:47:00,
2013-02-14 19:52:00,38.3,20.2,30.36,South,180,0.0,0.7,48,0.00,,,0.00,WUHU21623XXSP,2013-02-15 03:52:00,
2013-02-14 19:57:00,37.9,20.1,30.37,ENE,67,0.0,0.0,48,0.00,,,0.00,WUHU21623XXSP,2013-02-15 03:57:00,
2013-02-14 20:02:00,37.6,19.6,30.37,NE,45,0.0,0.0,48,0.00,,,0.00,WUHU21623XXSP,2013-02-15 04:02:00,
2013-02-14 20:07:00,37.2,19.3,30.37,North,0,2.9,2.9,48,0.00,,,0.00,WUHU21623XXSP,2013-02-15 04:07:00,
2013-02-14 20:12:00,37.0,19.6,30.37,NNE,22,0.0,2.9,49,0.00,,,0.00,WUHU21623XXSP,2013-02-15 04:12:00,
2013-02-14 20:19:00,36.5,19.1,30.37,SE,135,0.0,0.0,49,0.00,,,0.00,WUHU21623XXSP,2013-02-15 04:19:00,
2013-02-14 20:24:00,36.3,19.0,30.37,ESE,112,0.0,0.0,49,0.00,,,0.00,WUHU21623XXSP,2013-02-15 04:24:00,
2013-02-14 20:29:00,36.0,19.2,30.37,ENE,67,0.0,0.0,50,0.00,,,0.00,WUHU21623XXSP,2013-02-15 04:29:00,
2013-02-14 20:46:00,34.9,18.1,30.37,ESE,112,0.0,0.0,50,0.00,,,0.00,WUHU21623XXSP,2013-02-15 04:46:00,
2013-02-14 20:51:00,34.5,17.8,30.37,SE,135,0.0,0.0,50,0.00,,,0.00,WUHU21623XXSP,2013-02-15 04:51:00,
2013-02-14 20:56:00,34.3,17.6,30.37,ESE,112,0.0,0.0,50,0.00,,,0.00,WUHU21623XXSP,2013-02-15 04:56:00,
2013-02-14 21:03:00,33.6,16.9,30.38,NE,45,0.0,0.0,50,0.00,,,0.00,WUHU21623XXSP,2013-02-15 05:03:00,
2013-02-14 21:04:00,33.6,16.9,30.38,NE,45,0.0,0.0,50,0.00,,,0.00,WUHU21623XXSP,2013-02-15 05:04:00,
2013-02-14 21:05:00,33.6,16.9,30.38,NE,45,0.0,0.0,50,0.00,,,0.00,WUHU21623XXSP,2013-02-15 05:05:00,
2013-02-14 21:10:00,33.4,16.7,30.38,East,90,0.0,0.0,50,0.00,,,0.00,WUHU21623XXSP,2013-02-15 05:10:00,
2013-02-14 21:15:00,32.7,16.5,30.38,ESE,112,0.0,0.0,51,0.00,,,0.00,WUHU21623XXSP,2013-02-15 05:15:00,
2013-02-14 21:20:00,32.7,16.5,30.38,East,90,0.0,0.0,51,0.00,,,0.00,WUHU21623XXSP,2013-02-15 05:20:00,
2013-02-14 21:25:00,32.4,16.2,30.38,SSE,157,0.0,0.0,51,0.00,,,0.00,WUHU21623XXSP,2013-02-15 05:25:00,
2013-02-14 21:30:00,32.2,16.0,30.38,ESE,112,0.0,0.0,51,0.00,,,0.00,WUHU21623XXSP,2013-02-15 05:30:00,
2013-02-14 21:35:00,31.8,16.1,30.38,ENE,67,0.0,0.0,52,0.00,,,0.00,WUHU21623XXSP,2013-02-15 05:35:00,
2013-02-14 21:40:00,31.6,16.0,30.38,ENE,67,0.0,0.0,52,0.00,,,0.00,WUHU21623XXSP,2013-02-15 05:40:00,
2013-02-14 21:45:00,31.3,15.6,30.38,NE,45,0.0,0.0,52,0.00,,,0.00,WUHU21623XXSP,2013-02-15 05:45:00,
2013-02-14 21:50:00,31.3,15.6,30.38,NNE,22,0.0,0.0,52,0.00,,,0.00,WUHU21623XXSP,2013-02-15 05:50:00,
2013-02-14 21:55:00,30.9,15.3,30.39,NNE,22,0.0,0.0,52,0.00,,,0.00,WUHU21623XXSP,2013-02-15 05:55:00,
2013-02-14 22:01:00,30.7,15.1,30.39,SSE,157,0.0,0.0,52,0.00,,,0.00,WUHU21623XXSP,2013-02-15 06:01:00,
2013-02-14 22:06:00,30.6,15.0,30.39,SSE,157,0.0,0.0,52,0.00,,,0.00,WUHU21623XXSP,2013-02-15 06:06:00,
2013-02-14 22:12:00,30.2,14.6,30.38,NE,45,0.0,0.0,52,0.00,,,0.00,WUHU21623XXSP,2013-02-15 06:12:00,
2013-02-14 22:17:00,30.0,14.5,30.38,NE,45,0.0,0.0,52,0.00,,,0.00,WUHU21623XXSP,2013-02-15 06:17:00,
2013-02-14 22:22:00,30.0,14.9,30.38,SE,135,0.0,0.0,53,0.00,,,0.00,WUHU21623XXSP,2013-02-15 06:22:00,
2013-02-14 22:27:00,29.7,14.7,30.38,SE,135,0.0,0.0,53,0.00,,,0.00,WUHU21623XXSP,2013-02-15 06:27:00,
2013-02-14 22:32:00,29.5,14.4,30.39,ENE,67,0.0,0.0,53,0.00,,,0.00,WUHU21623XXSP,2013-02-15 06:32:00,
2013-02-14 22:37:00,29.3,14.4,30.39,ENE,67,0.0,0.0,53,0.00,,,0.00,WUHU21623XXSP,2013-02-15 06:37:00,
2013-02-14 22:42:00,29.1,14.1,30.38,ENE,67,0.0,0.0,53,0.00,,,0.00,WUHU21623XXSP,2013-02-15 06:42:00,
2013-02-14 22:47:00,29.1,14.5,30.38,NW,315,0.0,0.0,54,0.00,,,0.00,WUHU21623XXSP,2013-02-15 06:47:00,
2013-02-14 22:52:00,28.9,14.3,30.39,WNW,292,0.0,0.0,54,0.00,,,0.00,WUHU21623XXSP,2013-02-15 06:52:00,
2013-02-14 22:57:00,28.8,14.2,30.39,SE,135,0.0,0.0,54,0.00,,,0.00,WUHU21623XXSP,2013-02-15 06:57:00,
2013-02-14 23:02:00,28.6,14.4,30.39,SSW,202,0.0,0.0,55,0.00,,,0.00,WUHU21623XXSP,2013-02-15 07:02:00,
2013-02-14 23:07:00,28.6,14.4,30.39,South,180,0.0,0.0,55,0.00,,,0.00,WUHU21623XXSP,2013-02-15 07:07:00,
2013-02-14 23:14:00,28.2,14.1,30.39,NNE,22,0.0,0.0,55,0.00,,,0.00,WUHU21623XXSP,2013-02-15 07:14:00,
2013-02-14 23:20:00,28.2,14.1,30.39,SE,135,0.0,0.0,55,0.00,,,0.00,WUHU21623XXSP,2013-02-15 07:20:00,
2013-02-14 23:26:00,28.0,13.9,30.39,ENE,67,0.0,0.0,55,0.00,,,0.00,WUHU21623XXSP,2013-02-15 07:26:00,
2013-02-14 23:31:00,27.7,13.6,30.39,NE,45,0.0,0.0,55,0.00,,,0.00,WUHU21623XXSP,2013-02-15 07:31:00,
2013-02-14 23:36:00,27.7,13.6,30.39,NE,45,0.0,0.0,55,0.00,,,0.00,WUHU21623XXSP,2013-02-15 07:36:00,
2013-02-14 23:41:00,27.5,13.4,30.39,NE,45,0.0,0.0,55,0.00,,,0.00,WUHU21623XXSP,2013-02-15 07:41:00,
2013-02-14 23:53:00,27.1,13.4,30.39,SSE,157,0.0,0.0,56,0.00,,,0.00,WUHU21623XXSP,2013-02-15 07:53:00,
2013-02-14 23:58:00,27.1,13.4,30.39,SE,135,0.0,0.0,56,0.00,,,0.00,WUHU21623XXSP,2013-02-15 07:58:00,